Flag for Germany Weather past 2 weeks in Kehl, Baden-Württemberg, Germany

Now
75 °F

Sunny.


Feels Like: 78 °F
Forecast: 66 / 75 °F
Wind: 2 mph from North

Location: Strasbourg Airport

Current Time: Jul 7, 2015 at 9:34:23 AM

Latest Report: Jul 7, 2015 at 9:00 AM


Visibility: 10 mi

Pressure: 29.95 "Hg

Humidity: 57%

Dew point: 59 °F

Location of KehlLocation

Historic Weather in Kehl — Graph

°F

Kehl temperature yesterday

Maximum temperature yesterday: 88 °F (at 6:30 PM)
Minimum temperature yesterday: 66 °F (at 6:00 AM)
Average temperature yesterday: 77 °F

Past Weeks' High & Low Weather Summary

 TemperatureHumidityPressure
High100 °F (Jul 4, 4:00 PM)94% (Jun 22, 8:00 AM)30.21 "Hg (Jun 22, 8:00 AM)
Low48 °F (Jun 23, 5:30 AM)23% (Jul 1, 6:00 PM)29.77 "Hg (Jun 22, 7:00 PM)
Average73 °F59%30.09 "Hg
* Reported Jun 22 8:00 AM — Jul 7 8:00 AM, Kehl, Weather by CustomWeather, © 2015

Note: Actual official high and low records may vary slightly from our data, if they occured in-between our weather recording intervals... More about our weather records

Advertising

Kehl weather history for previous 24 hours

 ConditionsComfort  
Time TempWeatherWind HumidityBarometerVisibility
8:00 AM
Tue, Jul 7
70 °FSunny.No wind64%29.95 "Hg10 mi
7:30 AM70 °FSunny.2 mph64%29.98 "Hg10 mi
7:00 AM66 °FSunny.2 mph73%29.98 "Hg10 mi
6:30 AM64 °FClear.2 mph83%29.98 "Hg10 mi
6:00 AM63 °FClear.2 mph88%29.98 "Hg10 mi
5:30 AM63 °FClear.3 mph83%29.98 "Hg10 mi
5:00 AM63 °FClear.3 mph83%29.98 "Hg10 mi
4:30 AM63 °FClear.3 mph83%29.98 "Hg10 mi
4:00 AM63 °FClear.3 mph88%29.98 "Hg10 mi
3:30 AM63 °FClear.2 mph83%30.01 "Hg10 mi
3:00 AM64 °FClear.2 mph83%30.01 "Hg10 mi
2:30 AM64 °FClear.1 mph83%30.01 "Hg10 mi
2:00 AM68 °FClear.2 mph73%30.01 "Hg10 mi
1:30 AM66 °FClear.3 mph78%30.04 "Hg10 mi
1:00 AM66 °FPassing clouds.3 mph78%30.04 "HgN/A
12:30 AM68 °FClear.6 mph73%30.04 "Hg10 mi
12:00 AM68 °FClear.2 mph73%30.04 "Hg10 mi
11:00 PM
Mon, Jul 6
72 °FClear.2 mph65%30.04 "Hg10 mi
10:30 PM73 °FSunny.2 mph61%30.04 "Hg10 mi
10:00 PM75 °FSunny.3 mph61%30.07 "Hg10 mi
9:30 PM77 °FSunny.5 mph57%30.04 "Hg10 mi
9:00 PM82 °FPassing clouds.3 mph45%30.07 "HgN/A
8:30 PM84 °FPassing clouds.5 mph40%30.07 "HgN/A
8:00 PM84 °FPassing clouds.6 mph40%30.07 "HgN/A
7:30 PM88 °FSunny.3 mph35%30.07 "Hg10 mi
7:00 PM86 °FPassing clouds.5 mph38%30.07 "HgN/A
6:30 PM88 °FPassing clouds.3 mph35%30.07 "HgN/A
6:00 PM86 °FPassing clouds.7 mph35%30.07 "HgN/A
5:30 PM86 °FSunny.3 mph35%30.07 "Hg10 mi
5:00 PM86 °FSunny.5 mph35%30.09 "Hg10 mi
4:30 PM86 °FPassing clouds.3 mph35%30.09 "HgN/A
4:00 PM86 °FSunny.3 mph35%30.12 "Hg10 mi
3:30 PM84 °FPassing clouds.3 mph35%30.12 "HgN/A
3:00 PM84 °FSunny.2 mph35%30.12 "Hg10 mi
2:30 PM82 °FPassing clouds.7 mph40%30.15 "HgN/A
2:00 PM82 °FPassing clouds.3 mph37%30.15 "HgN/A
1:30 PM82 °FSunny.5 mph40%30.15 "Hg10 mi
1:00 PM81 °FPassing clouds.6 mph42%30.15 "HgN/A
12:30 PM79 °FPassing clouds.7 mph45%30.18 "HgN/A
12:00 PM79 °FPassing clouds.2 mph42%30.18 "HgN/A
11:30 AM79 °FPassing clouds.5 mph45%30.18 "HgN/A
11:00 AM77 °FSunny.3 mph47%30.21 "Hg10 mi
10:30 AM75 °FPassing clouds.5 mph47%30.21 "HgN/A
10:00 AM75 °FPassing clouds.5 mph47%30.21 "HgN/A
9:30 AM75 °FPassing clouds.5 mph50%30.21 "HgN/A
9:00 AM73 °FSunny.5 mph53%30.21 "Hg10 mi
Weather by CustomWeather, © 2015

See weather overviewHow to use our weather pages